Wind_Speed
14 14 14 14 13 13 13 13 12 12 12 11 11 10 10 10 10 10 9 9 9 9 9 8 8 8 7 7 6 6 6 6 5 5 5 4 4 4 4 4 3 3 3
15 15 15 15 14 14 14 14 13 13 13 13 12 12 11 11 11 11 11 10 10 10 10 10 10 10 9 8 8 7 7 7 7 6 6 5 5 5 5 5 5 4 4
16 16 16 16 15 15 15 15 15 15 15 14 14 13 13 12 12 12 12 12 12 11 11 11 11 11 10 10 9 9 9 9 8 8 7 7 6 7 6 6 7 6 6
17 17 17 17 17 16 16 16 16 16 16 15 15 15 14 14 14 14 13 13 13 13 13 12 12 12 12 12 11 10 10 10 10 10 9 9 8 8 9 9 9 8 8
18 18 18 19 18 18 17 17 17 17 17 17 16 16 16 16 15 15 15 15 15 14 14 14 13 14 14 13 13 12 12 12 12 12 11 10 10 10 10 10 10 10 10
19 19 19 19 19 19 19 19 19 18 18 18 18 17 17 17 17 16 16 16 16 16 15 15 15 15 15 15 15 15 14 14 14 13 13 12 12 11 11 11 11 11 11
21 21 20 20 20 20 20 20 20 20 20 20 20 19 19 19 19 19 18 18 18 18 17 17 17 16 16 16 16 16 16 15 14 14 14 14 14 13 13 13 13 13 13
23 23 23 22 22 22 22 22 22 22 22 22 22 21 21 21 20 20 20 20 20 20 20 19 19 18 18 17 17 18 17 17 16 15 15 15 15 15 15 14 14 14 14
24 25 25 24 24 24 24 24 24 23 23 23 23 24 23 23 22 22 22 22 21 21 21 21 21 21 20 20 19 19 19 19 18 17 17 17 16 16 16 15 15 15 15
26 26 26 26 25 25 25 25 25 25 25 24 24 24 24 25 25 24 24 24 24 23 23 23 23 23 23 22 22 22 21 21 20 19 19 18 18 18 18 17 17 17 17
27 27 27 27 27 27 27 27 26 26 26 26 26 25 26 26 26 26 26 26 26 26 26 26 26 26 25 25 24 24 23 22 22 21 21 21 20 20 19 19 19 18 18
29 29 29 29 29 29 28 28 28 27 27 27 27 27 27 27 27 27 27 27 27 28 28 28 28 28 28 27 26 25 25 24 24 23 23 23 23 22 22 21 21 21 20
31 31 31 31 31 31 30 29 29 29 29 29 29 29 29 29 29 28 29 29 29 29 29 30 30 30 30 29 28 27 26 26 25 24 24 24 24 24 24 23 23 22 22
33 33 33 33 33 33 32 31 31 31 31 30 30 30 31 31 31 30 30 30 30 30 29 30 30 31 31 30 30 29 28 27 27 27 26 25 25 26 26 26 25 25 24
34 34 34 35 35 34 34 34 33 33 33 32 32 32 32 33 33 33 32 32 32 32 31 31 31 31 31 32 31 31 30 29 29 28 28 28 27 27 27 28 28 27 26
37 37 37 37 37 37 36 35 35 36 35 35 35 34 34 34 34 34 35 34 34 34 33 33 32 32 31 31 31 31 31 31 30 29 29 29 29 28 28 28 28 28 28
39 39 39 39 39 39 39 38 38 37 37 37 37 37 36 36 36 36 36 36 36 36 35 35 34 34 33 32 32 32 31 31 30 30 30 30 29 29 29 28 28 29 28
41 41 41 41 41 41 41 41 41 40 40 39 39 39 39 38 38 38 38 37 37 37 37 37 36 36 35 35 34 34 33 32 32 32 31 31 30 30 30 30 30 30 29
43 43 43 43 43 43 43 42 42 42 42 42 41 41 41 40 40 40 40 40 39 38 38 38 38 38 37 37 36 36 35 34 33 33 32 32 32 31 31 31 31 31 31
45 45 46 46 45 45 45 45 44 44 44 44 44 43 43 43 42 41 41 41 41 40 40 39 39 39 39 38 37 36 37 37 36 35 34 34 33 33 32 32 32 32 33
47 47 47 47 47 47 47 47 47 46 46 46 45 45 45 44 44 43 43 43 42 41 41 41 40 40 40 40 39 38 37 37 37 37 36 35 35 35 35 34 33 34 34
48 48 49 49 49 49 49 49 49 48 48 47 47 46 46 45 45 45 44 44 44 43 43 42 42 41 41 41 41 40 39 38 38 38 37 37 37 36 36 36 36 35 35
49 49 50 50 50 50 51 51 50 50 50 49 49 48 48 47 47 47 47 46 45 44 44 44 44 43 43 42 42 42 42 41 40 39 39 38 37 36 36 37 37 37 36
49 50 50 51 51 51 52 52 52 51 51 51 50 50 50 50 49 49 49 48 47 47 46 46 45 45 44 44 44 43 43 43 41 40 40 40 40 39 38 38 38 38 37
49 50 51 51 52 52 52 52 53 53 52 52 52 52 51 51 51 51 51 50 50 49 48 48 47 47 46 46 46 45 44 44 44 43 42 41 42 41 41 40 39 38 38
48 50 51 52 52 52 53 53 53 54 53 53 53 54 53 53 52 52 52 51 51 51 50 50 49 49 48 48 47 47 46 46 46 45 44 43 43 42 42 41 41 40 40
Wind_Direction
256 256 255 254 252 250 249 247 243 241 242 241 239 237 237 238 240 242 240 239 238 238 236 236 235 235 236 237 237 237 236 234 231 229 230 230 224 221 220 215 211 212 208
256 255 255 254 253 250 250 248 246 245 243 243 243 242 242 241 241 241 242 241 239 240 240 240 238 237 238 240 241 240 240 241 241 238 240 240 236 235 233 228 229 231 227
255 256 256 256 254 251 250 249 248 247 245 245 244 244 243 244 244 243 243 243 242 242 242 243 241 239 239 240 240 241 242 243 245 246 246 246 246 245 243 241 237 238 237
255 256 257 257 255 252 251 249 249 247 245 245 245 246 245 244 244 244 243 243 243 245 245 245 243 241 241 241 241 242 244 246 248 249 250 250 252 250 249 248 244 243 243
255 256 256 256 256 254 252 250 250 248 245 245 247 247 247 246 246 245 245 244 245 245 246 246 245 244 244 244 243 243 245 248 250 252 253 253 253 252 250 249 248 246 245
256 256 255 254 255 255 253 252 251 248 247 246 246 247 248 248 248 248 247 246 246 245 245 246 247 247 246 245 245 246 247 249 251 253 254 253 253 252 252 253 253 252 250
256 256 256 255 254 254 253 252 252 250 249 248 247 247 248 248 248 248 247 246 246 245 245 246 248 249 248 248 247 248 248 249 251 252 253 253 253 254 255 255 257 256 254
256 256 256 256 255 255 255 254 254 252 250 248 248 249 249 250 250 249 248 247 247 247 246 246 248 249 249 250 250 251 250 250 250 251 253 254 254 254 255 257 257 255 254
256 255 256 255 256 255 255 256 255 254 254 252 251 251 251 251 251 251 250 249 247 247 246 246 248 249 251 251 251 253 255 254 252 252 253 253 254 254 254 255 256 255 254
256 255 255 256 257 256 256 256 256 256 255 254 253 253 253 253 253 252 252 250 248 247 247 247 248 250 251 252 252 253 255 255 253 253 252 252 254 255 255 255 255 256 256
256 256 256 257 257 257 256 256 254 254 254 254 254 254 254 254 254 253 252 251 249 248 248 249 249 250 251 252 253 254 255 254 253 254 254 253 254 256 256 255 255 256 256
256 256 256 257 256 256 256 256 255 255 254 254 254 254 254 254 253 253 253 251 250 250 250 250 250 250 251 252 253 255 254 254 254 254 254 254 254 255 256 256 257 255 255
256 256 256 256 256 256 255 255 254 255 254 254 253 253 253 254 253 253 253 252 252 252 250 250 250 250 251 251 253 254 254 254 254 254 255 256 255 255 255 256 256 257 256
255 255 254 254 255 255 256 255 254 254 254 254 255 254 254 254 254 253 253 253 253 253 251 250 251 251 250 250 251 252 253 253 254 254 253 254 254 255 255 255 255 257 257
254 255 255 255 255 255 256 255 255 254 254 255 255 256 255 254 254 254 253 253 253 252 252 252 252 251 251 250 249 250 251 253 254 254 254 254 255 256 257 257 256 256 257
254 254 255 255 255 254 255 255 255 255 255 256 255 255 256 255 254 254 253 253 252 251 251 251 251 251 251 250 250 250 251 252 252 253 254 255 255 255 256 256 257 257 258
255 255 255 255 256 256 255 255 255 255 255 255 256 256 256 255 255 254 253 253 253 252 251 250 251 251 251 251 251 251 251 252 253 253 253 254 254 255 256 256 257 258 259
255 255 255 256 255 256 256 255 255 255 255 255 255 256 255 255 254 254 254 253 253 252 251 249 250 250 251 252 252 251 250 251 253 253 253 253 254 255 256 256 257 258 259
255 255 255 256 255 255 255 255 255 256 256 255 255 255 255 255 255 254 254 254 252 252 251 250 250 250 250 251 252 251 251 251 251 252 253 254 254 255 256 256 256 258 258
256 255 255 255 255 255 255 255 255 255 256 256 255 254 254 254 254 254 254 254 253 252 252 251 251 250 250 251 251 251 251 251 252 252 252 253 254 254 255 256 256 256 257
256 256 255 255 255 255 256 256 255 255 255 255 255 254 254 254 254 254 254 253 253 253 252 252 252 251 251 251 251 251 250 251 252 252 253 254 255 255 255 255 256 256 256
256 255 255 254 254 254 255 255 254 254 254 254 255 254 253 253 254 254 254 253 253 252 252 252 252 251 251 251 251 251 250 250 251 252 253 254 255 255 255 256 257 256 256
256 255 254 254 254 254 254 254 254 253 253 253 254 254 253 253 253 254 254 254 253 252 252 252 252 252 251 251 251 251 250 251 252 251 253 253 253 255 255 256 256 255 256
257 256 255 254 254 254 253 253 254 253 253 253 253 253 253 253 253 253 253 253 253 252 251 251 251 251 251 251 250 250 251 251 251 251 253 253 254 256 256 256 256 255 255
257 256 255 255 255 254 254 254 254 254 254 254 253 253 253 253 253 253 253 253 253 252 252 251 251 250 251 251 250 250 251 251 251 252 252 254 255 256 257 256 255 256 256
258 257 256 255 255 255 255 255 255 255 255 254 254 254 254 254 253 253 253 253 252 252 252 251 251 250 251 251 251 249 250 250 251 252 253 253 254 255 257 257 255 257 258
Height
5835 5836 5837 5837 5838 5839 5840 5841 5842 5843 5844 5845 5846 5847 5848 5849 5850 5851 5852 5853 5854 5855 5857 5858 5859 5860 5861 5862 5863 5864 5864 5865 5866 5866 5867 5867 5868 5868 5869 5870 5870 5871 5871
5833 5833 5834 5835 5836 5837 5838 5839 5840 5841 5842 5843 5844 5845 5846 5847 5848 5849 5850 5851 5852 5854 5855 5856 5857 5858 5859 5860 5861 5862 5863 5864 5865 5865 5866 5867 5867 5868 5868 5869 5869 5870 5871
5830 5831 5831 5832 5833 5834 5835 5836 5837 5838 5839 5840 5841 5842 5843 5844 5846 5847 5848 5849 5850 5851 5853 5854 5855 5856 5858 5859 5860 5861 5862 5863 5863 5864 5865 5865 5866 5867 5867 5868 5868 5869 5870
5827 5827 5828 5829 5830 5831 5832 5833 5834 5835 5836 5838 5839 5840 5841 5842 5843 5844 5845 5846 5848 5849 5850 5852 5853 5854 5855 5856 5858 5859 5860 5861 5862 5863 5863 5864 5864 5865 5866 5867 5867 5868 5868
5823 5824 5825 5826 5827 5828 5829 5830 5831 5832 5833 5834 5836 5837 5838 5839 5840 5841 5842 5844 5845 5846 5848 5849 5850 5852 5853 5854 5855 5857 5857 5859 5860 5860 5861 5862 5863 5863 5864 5865 5865 5866 5867
5820 5820 5821 5822 5823 5824 5826 5827 5828 5829 5830 5831 5832 5833 5834 5836 5837 5838 5839 5841 5842 5843 5845 5846 5848 5849 5850 5851 5853 5854 5855 5856 5857 5858 5859 5860 5860 5861 5862 5863 5863 5864 5865
5815 5816 5817 5819 5820 5821 5822 5823 5824 5825 5826 5827 5828 5830 5831 5832 5833 5834 5836 5837 5839 5840 5841 5843 5844 5846 5847 5848 5850 5851 5852 5853 5854 5855 5856 5857 5858 5859 5859 5860 5861 5862 5862
5811 5812 5813 5814 5815 5817 5818 5819 5820 5821 5822 5823 5824 5825 5827 5828 5829 5830 5832 5833 5835 5836 5838 5839 5841 5842 5844 5845 5846 5847 5848 5849 5851 5852 5853 5854 5855 5856 5857 5857 5858 5859 5860
5806 5807 5808 5809 5811 5812 5813 5814 5815 5816 5817 5818 5820 5821 5822 5824 5825 5826 5827 5829 5830 5832 5834 5835 5837 5838 5840 5841 5842 5843 5845 5846 5847 5848 5849 5850 5851 5852 5853 5854 5855 5856 5856
5801 5802 5803 5804 5805 5806 5808 5808 5810 5811 5812 5813 5814 5816 5817 5819 5820 5821 5822 5824 5825 5827 5829 5830 5832 5834 5835 5837 5838 5839 5840 5841 5843 5844 5845 5847 5847 5848 5849 5850 5851 5852 5853
5795 5797 5798 5799 5800 5801 5802 5803 5804 5805 5806 5808 5809 5810 5812 5813 5815 5816 5817 5819 5820 5822 5824 5825 5827 5829 5830 5832 5833 5834 5835 5837 5838 5839 5841 5842 5843 5844 5845 5846 5847 5848 5849
5790 5791 5792 5793 5794 5795 5796 5797 5798 5799 5800 5802 5803 5804 5806 5807 5809 5810 5811 5813 5815 5816 5818 5819 5821 5823 5825 5826 5828 5829 5830 5831 5833 5834 5836 5837 5838 5840 5841 5842 5843 5844 5845
5783 5784 5785 5786 5787 5788 5789 5790 5791 5793 5794 5795 5797 5798 5799 5801 5802 5804 5805 5807 5808 5810 5812 5813 5815 5817 5819 5820 5822 5823 5825 5826 5827 5829 5830 5832 5833 5835 5836 5837 5838 5839 5840
5776 5777 5778 5779 5780 5781 5782 5783 5784 5786 5787 5788 5790 5791 5792 5794 5795 5797 5798 5800 5802 5803 5805 5806 5808 5810 5812 5814 5815 5817 5819 5820 5822 5823 5825 5826 5828 5829 5830 5832 5833 5834 5835
5768 5769 5770 5771 5772 5773 5774 5776 5777 5778 5780 5781 5782 5783 5785 5786 5788 5789 5791 5792 5794 5796 5797 5799 5801 5803 5805 5806 5808 5810 5812 5814 5816 5817 5819 5820 5822 5823 5825 5826 5827 5829 5830
5759 5760 5762 5763 5764 5765 5766 5767 5769 5770 5772 5773 5774 5775 5777 5778 5780 5781 5783 5784 5786 5788 5790 5792 5794 5795 5797 5799 5801 5803 5805 5807 5809 5811 5812 5814 5816 5817 5819 5820 5822 5823 5824
5749 5751 5752 5754 5755 5756 5757 5759 5760 5761 5763 5764 5766 5767 5768 5770 5771 5773 5775 5776 5778 5780 5782 5784 5786 5788 5790 5792 5794 5796 5798 5800 5802 5804 5806 5807 5809 5811 5812 5814 5815 5817 5818
5738 5740 5742 5743 5745 5746 5748 5749 5750 5752 5753 5755 5756 5758 5759 5760 5762 5764 5765 5767 5769 5771 5773 5775 5777 5779 5782 5784 5786 5788 5791 5793 5795 5797 5799 5801 5802 5804 5806 5807 5809 5810 5812
5727 5729 5731 5733 5734 5736 5737 5739 5740 5741 5743 5745 5746 5748 5749 5750 5752 5754 5756 5758 5759 5761 5763 5766 5768 5770 5773 5775 5778 5780 5783 5785 5787 5789 5791 5793 5795 5797 5799 5800 5802 5803 5805
5715 5717 5719 5721 5723 5725 5726 5728 5729 5731 5732 5734 5735 5737 5739 5740 5742 5743 5745 5747 5750 5752 5754 5756 5759 5761 5763 5766 5769 5772 5774 5777 5779 5781 5783 5785 5787 5789 5791 5793 5795 5796 5797
5702 5704 5707 5709 5710 5712 5714 5716 5717 5719 5721 5722 5724 5726 5728 5730 5731 5733 5735 5737 5739 5742 5744 5746 5749 5751 5753 5756 5760 5762 5765 5767 5770 5773 5775 5777 5779 5781 5783 5785 5787 5788 5790
5689 5691 5693 5695 5698 5700 5702 5703 5705 5706 5709 5711 5712 5714 5716 5718 5720 5722 5724 5726 5729 5731 5733 5736 5738 5741 5744 5746 5749 5752 5755 5759 5761 5764 5766 5768 5771 5773 5775 5777 5779 5780 5782
5675 5678 5680 5682 5684 5686 5688 5690 5692 5693 5696 5698 5700 5702 5704 5706 5708 5711 5713 5715 5717 5720 5723 5725 5728 5731 5734 5736 5739 5742 5745 5749 5751 5754 5757 5759 5761 5764 5766 5768 5770 5772 5773
5661 5664 5666 5668 5670 5672 5674 5676 5678 5680 5683 5685 5687 5689 5691 5694 5696 5698 5700 5703 5705 5708 5711 5714 5716 5719 5722 5725 5728 5731 5735 5738 5742 5745 5748 5750 5752 5754 5756 5759 5761 5762 5764
5648 5650 5652 5654 5656 5658 5660 5662 5664 5666 5669 5671 5673 5676 5678 5680 5683 5685 5687 5690 5693 5696 5699 5702 5704 5707 5711 5714 5717 5720 5723 5727 5730 5734 5738 5740 5742 5744 5746 5749 5751 5753 5755
5634 5636 5638 5640 5642 5644 5646 5648 5650 5653 5655 5657 5659 5662 5664 5667 5669 5671 5673 5676 5679 5682 5686 5689 5692 5695 5698 5702 5705 5708 5712 5715 5719 5722 5726 5729 5732 5734 5736 5738 5741 5743 5745